This is the latest recevied weather packets stored in our database for station/object KU4DD. If no packets are shown the sender has not sent any weather packets the latest 10 day(s).
| Time | Temp. | Humidity | Pressure | Rain* | Wind** | Luminosity | Snow |
|---|---|---|---|---|---|---|---|
| 1777606434 | 21.67° C | 56% | 1009.8 hPa | 0 mm | - | - | - |
| 1777603594 | 21.67° C | 56% | 1009.1 hPa | 0 mm | - | - | - |
| 1777597914 | 21.67° C | 54% | 1008.1 hPa | 0 mm | - | - | - |
| 1777595706 | 21.67° C | 53% | 1007.5 hPa | 0 mm | - | - | - |
| 1777593514 | 21.67° C | 53% | 1007.5 hPa | 0 mm | - | - | - |
| 1777590356 | 21.67° C | 51% | 1006.8 hPa | 0 mm | - | - | - |
| 1777589728 | 21.67° C | 50% | 1006.4 hPa | 0 mm | - | - | - |
| 1777588488 | 22.22° C | 51% | 1006.4 hPa | 0 mm | - | - | - |
| 1777587550 | 21.67° C | 49% | 1006.4 hPa | 0 mm | - | - | - |
| 1777586599 | 22.22° C | 49% | 1006.4 hPa | 0 mm | - | - | - |
| 1777586287 | 22.22° C | 50% | 1006.4 hPa | 0 mm | - | - | - |
| 1777585021 | 22.22° C | 50% | 1006.4 hPa | 0 mm | - | - | - |
| 1777584075 | 22.22° C | 50% | 1006.1 hPa | 0 mm | - | - | - |
| 1777583762 | 22.22° C | 48% | 1006.4 hPa | 0 mm | - | - | - |
| 1777582510 | 21.67° C | 51% | 1006.8 hPa | 0 mm | - | - | - |
| 1777579684 | 21.67° C | 49% | 1006.8 hPa | 0 mm | - | - | - |
| 1777576219 | 21.67° C | 51% | 1006.8 hPa | 0 mm | - | - | - |
| 1777568065 | 21.11° C | 54% | 1007.1 hPa | 0 mm | - | - | - |
| 1777566812 | 21.11° C | 52% | 1007.5 hPa | 0 mm | - | - | - |
| 1777563345 | 21.11° C | 54% | 1007.8 hPa | 0 mm | - | - | - |
| 1777562407 | 21.11° C | 53% | 1007.8 hPa | 0 mm | - | - | - |
| 1777558966 | 21.11° C | 54% | 1008.5 hPa | 0 mm | - | - | - |
| 1777554541 | 21.67° C | 54% | 1006.4 hPa | 0 mm | - | - | - |
| 1777550148 | 22.22° C | 60% | 1006.8 hPa | 0 mm | - | - | - |
| 1777546390 | 22.22° C | 61% | 1006.4 hPa | 0 mm | - | - | - |
* Rain latest hour (hover to see other rain measurements)
** Current wind speed in m/s (hover to see current wind gust speed)